Charleston, SC

6:27 AM EDT on April 28, 2017 (GMT -0400)
Charleston Executive

Weather History for KJZI - November, 2013

Change the Weather History Date:

Sunday, November 24, 2013

  Actual Average (KCHS) Record (KCHS)
Temperature  
Mean Temperature 48 °F -  
Max Temperature 60 °F 68 °F 82 °F (1973)
Min Temperature 35 °F 45 °F 21 °F (1970)
Degree Days  
Heating Degree Days 18    
Moisture  
Dew Point 23 °F    
Average Humidity 41    
Maximum Humidity 68    
Minimum Humidity 25    
Precipitation  
Precipitation 0.00 in - - ()
Sea Level Pressure  
Sea Level Pressure 30.35 in    
Wind  
Wind Speed 13 mph (NNE)    
Max Wind Speed 23 mph    
Max Gust Speed 30 mph    
Visibility 10 miles    
Events      
Averages and records for this station are not official NWS values.
T = Trace of Precipitation, MM = Missing Value Source: NWS Daily Summary

Daily Weather History Graph

Daily Weather History Graph

Search for Another Location

Airport or City:

Trip Planner

Search our weather history database for the weather conditions in past years. The results will help you decide how hot, cold, wet, or windy it might be!

Date:

Astronomy

Nov. 24, 2013 Rise Set
Actual Time 6:58 AM EST 5:15 PM EST
Civil Twilight 6:31 AM EST 5:41 PM EST
Nautical Twilight 6:01 AM EST 6:11 PM EST
Astronomical Twilight 5:32 AM EST 6:41 PM EST
Moon 11:28 PM EST (11/24) 11:54 AM EST (11/24)
Length of Visible Light 11h 09m
Length of Day
10h 16m
Waning Gibbous, 61% of the Moon is Illuminated
Nov 24
Waning Gibbous
Nov 25
Last Quarter
Dec 2
New
Dec 9
First Quarter
Dec 17
Full

Hourly Weather History & Observations

Time (EST) Temp. Windchill Dew Point Humidity Pressure Visibility Wind Dir Wind Speed Gust Speed Precip Events Conditions
12:15 AM 60.8 °F - 50.0 °F 68% 30.11 in 10.0 mi North 9.2 mph - 0.00 in   Overcast
12:35 AM 60.8 °F - 50.0 °F 68% 30.11 in 10.0 mi North 9.2 mph - 0.00 in   Overcast
12:55 AM 59.0 °F - 48.2 °F 67% 30.12 in 10.0 mi North 13.8 mph 20.7 mph 0.00 in   Mostly Cloudy
1:15 AM 57.2 °F - 46.4 °F 67% 30.12 in 10.0 mi North 15.0 mph 19.6 mph 0.00 in   Scattered Clouds
1:35 AM 57.2 °F - 42.8 °F 59% 30.13 in 10.0 mi North 16.1 mph 24.2 mph 0.00 in   Partly Cloudy
1:55 AM 55.4 °F - 41.0 °F 58% 30.14 in 10.0 mi NNW 11.5 mph - 0.00 in   Partly Cloudy
2:15 AM 53.6 °F - 33.8 °F 47% 30.15 in 10.0 mi North 10.4 mph - 0.00 in   Clear
2:35 AM 53.6 °F - 32.0 °F 44% 30.16 in 10.0 mi North 13.8 mph 20.7 mph 0.00 in   Clear
2:55 AM 51.8 °F - 30.2 °F 44% 30.16 in 10.0 mi North 12.7 mph 17.3 mph 0.00 in   Clear
3:15 AM 51.8 °F - 30.2 °F 44% 30.17 in 10.0 mi North 10.4 mph 16.1 mph 0.00 in   Clear
3:35 AM 51.8 °F - 28.4 °F 41% 30.17 in 10.0 mi North 11.5 mph 16.1 mph 0.00 in   Clear
3:55 AM 50.0 °F - 28.4 °F 43% 30.18 in 10.0 mi North 13.8 mph 19.6 mph 0.00 in   Clear
4:15 AM 48.2 °F - 26.6 °F 43% 30.19 in 10.0 mi North 17.3 mph 24.2 mph 0.00 in   Clear
4:35 AM 48.2 °F - 28.4 °F 46% 30.20 in 10.0 mi North 13.8 mph 20.7 mph 0.00 in   Clear
4:55 AM 46.4 °F 40.1 °F 28.4 °F 50% 30.21 in 10.0 mi North 15.0 mph 21.9 mph 0.00 in   Clear
5:15 AM 46.4 °F 39.0 °F 24.8 °F 43% 30.23 in 10.0 mi North 19.6 mph 26.5 mph 0.00 in   Clear
5:35 AM 46.4 °F 39.0 °F 24.8 °F 43% 30.24 in 10.0 mi North 19.6 mph 28.8 mph 0.00 in   Clear
5:55 AM 44.6 °F 37.2 °F 26.6 °F 49% 30.25 in 10.0 mi North 17.3 mph 23.0 mph 0.00 in   Clear
6:15 AM 44.6 °F 35.9 °F 23.0 °F 43% 30.26 in 10.0 mi NNE 23.0 mph 29.9 mph 0.00 in   Clear
6:35 AM 44.6 °F 36.6 °F 24.8 °F 46% 30.27 in 10.0 mi North 19.6 mph - 0.00 in   Clear
6:55 AM 44.6 °F 37.8 °F 24.8 °F 46% 30.29 in 10.0 mi North 15.0 mph 21.9 mph 0.00 in   Partly Cloudy
7:15 AM 44.6 °F 37.4 °F 23.0 °F 43% 30.31 in 10.0 mi North 16.1 mph 24.2 mph 0.00 in   Clear
7:35 AM 42.8 °F 35.1 °F 23.0 °F 46% 30.32 in 10.0 mi North 16.1 mph 24.2 mph 0.00 in   Clear
7:55 AM 44.6 °F 37.4 °F 23.0 °F 43% 30.32 in 10.0 mi North 16.1 mph 27.6 mph 0.00 in   Clear
8:15 AM 44.6 °F 36.9 °F 23.0 °F 43% 30.34 in 10.0 mi North 18.4 mph 24.2 mph 0.00 in   Clear
8:35 AM 42.8 °F 34.0 °F 23.0 °F 46% 30.34 in 10.0 mi North 20.7 mph 26.5 mph 0.00 in   Clear
8:55 AM 44.6 °F 36.6 °F 23.0 °F 43% 30.36 in 10.0 mi North 19.6 mph 27.6 mph 0.00 in   Clear
9:15 AM 42.8 °F 34.5 °F 21.2 °F 42% 30.37 in 10.0 mi North 18.4 mph 25.3 mph 0.00 in   Clear
9:35 AM 44.6 °F 37.4 °F 21.2 °F 39% 30.37 in 10.0 mi North 16.1 mph 24.2 mph 0.00 in   Clear
9:55 AM 44.6 °F 37.2 °F 23.0 °F 43% 30.38 in 10.0 mi NNE 17.3 mph 23.0 mph 0.00 in   Clear
10:15 AM 46.4 °F 40.7 °F 23.0 °F 40% 30.39 in 10.0 mi NNE 12.7 mph 20.7 mph 0.00 in   Clear
10:35 AM 46.4 °F 39.5 °F 21.2 °F 37% 30.39 in 10.0 mi NNE 17.3 mph 23.0 mph 0.00 in   Clear
10:55 AM 48.2 °F - 19.4 °F 32% 30.41 in 10.0 mi North 16.1 mph - 0.00 in   Clear
11:15 AM 46.4 °F 40.1 °F 21.2 °F 37% 30.40 in 10.0 mi NNE 15.0 mph - 0.00 in   Clear
11:35 AM 46.4 °F 40.7 °F 19.4 °F 34% 30.40 in 10.0 mi North 12.7 mph 20.7 mph 0.00 in   Clear
11:55 AM 46.4 °F 40.7 °F 17.6 °F 32% 30.40 in 10.0 mi North 12.7 mph 19.6 mph 0.00 in   Clear
12:15 PM 48.2 °F - 19.4 °F 32% 30.39 in 10.0 mi North 11.5 mph 17.3 mph 0.00 in   Clear
12:35 PM 48.2 °F - 19.4 °F 32% 30.39 in 10.0 mi North 13.8 mph 19.6 mph 0.00 in   Clear
12:55 PM 48.2 °F - 17.6 °F 30% 30.38 in 10.0 mi NNE 13.8 mph 20.7 mph 0.00 in   Clear
1:15 PM 48.2 °F - 17.6 °F 30% 30.37 in 10.0 mi North 10.4 mph 21.9 mph 0.00 in   Clear
1:35 PM 48.2 °F - 17.6 °F 30% 30.36 in 10.0 mi North 15.0 mph 20.7 mph 0.00 in   Clear
1:55 PM 48.2 °F - 17.6 °F 30% 30.36 in 10.0 mi North 15.0 mph 24.2 mph 0.00 in   Clear
2:15 PM 48.2 °F - 14.0 °F 25% 30.37 in 10.0 mi NNE 11.5 mph 18.4 mph 0.00 in   Clear
2:35 PM 48.2 °F - 14.0 °F 25% 30.36 in 10.0 mi NNE 15.0 mph 20.7 mph 0.00 in   Clear
2:55 PM 48.2 °F - 15.8 °F 27% 30.37 in 10.0 mi North 10.4 mph 21.9 mph 0.00 in   Clear
3:15 PM 48.2 °F - 14.0 °F 25% 30.37 in 10.0 mi NNE 13.8 mph - 0.00 in   Clear
3:35 PM 48.2 °F - 14.0 °F 25% 30.38 in 10.0 mi North 9.2 mph - 0.00 in   Clear
3:55 PM 46.4 °F 40.4 °F 14.0 °F 27% 30.39 in 10.0 mi North 13.8 mph 18.4 mph 0.00 in   Clear
4:15 PM 46.4 °F 40.7 °F 14.0 °F 27% 30.39 in 10.0 mi North 12.7 mph 18.4 mph 0.00 in   Clear
4:35 PM 46.4 °F 42.4 °F 15.8 °F 29% 30.40 in 10.0 mi NNE 8.1 mph - 0.00 in   Clear
4:55 PM 44.6 °F 39.2 °F 17.6 °F 34% 30.40 in 10.0 mi North 10.4 mph 17.3 mph 0.00 in   Clear
5:15 PM 42.8 °F 38.6 °F 17.6 °F 36% 30.41 in 10.0 mi NNE 6.9 mph - 0.00 in   Clear
5:35 PM 42.8 °F 38.0 °F 17.6 °F 36% 30.42 in 10.0 mi NNE 8.1 mph - 0.00 in   Clear
5:55 PM 42.8 °F 38.6 °F 19.4 °F 39% 30.43 in 10.0 mi NNE 6.9 mph - 0.00 in   Clear
6:15 PM 41.0 °F 35.8 °F 19.4 °F 42% 30.44 in 10.0 mi NNE 8.1 mph - 0.00 in   Clear
6:35 PM 41.0 °F 36.4 °F 19.4 °F 42% 30.44 in 10.0 mi North 6.9 mph - 0.00 in   Clear
6:55 PM 39.2 °F 37.0 °F 19.4 °F 45% 30.46 in 10.0 mi North 3.5 mph - 0.00 in   Clear
7:15 PM 39.2 °F 35.0 °F 21.2 °F 49% 30.47 in 10.0 mi North 5.8 mph - 0.00 in   Clear
7:35 PM 39.2 °F 35.0 °F 21.2 °F 49% 30.48 in 10.0 mi North 5.8 mph - 0.00 in   Clear
7:55 PM 39.2 °F 35.0 °F 21.2 °F 49% 30.48 in 10.0 mi NNE 5.8 mph - 0.00 in   Clear
8:15 PM 39.2 °F 35.9 °F 21.2 °F 49% 30.49 in 10.0 mi NNE 4.6 mph - 0.00 in   Clear
8:35 PM 39.2 °F 35.0 °F 21.2 °F 49% 30.50 in 10.0 mi NE 5.8 mph - 0.00 in   Clear
8:55 PM 39.2 °F 33.6 °F 19.4 °F 45% 30.51 in 10.0 mi NE 8.1 mph - 0.00 in   Clear
9:15 PM 39.2 °F 32.0 °F 17.6 °F 42% 30.50 in 10.0 mi NE 11.5 mph - 0.00 in   Clear
9:35 PM 39.2 °F 32.0 °F 17.6 °F 42% 30.49 in 10.0 mi NNE 11.5 mph 17.3 mph 0.00 in   Clear
9:55 PM 39.2 °F 32.5 °F 14.0 °F 36% 30.50 in 10.0 mi NNE 10.4 mph - 0.00 in   Clear
10:15 PM 37.4 °F 30.3 °F 14.0 °F 38% 30.50 in 10.0 mi NE 10.4 mph - 0.00 in   Clear
10:35 PM 37.4 °F 30.8 °F 14.0 °F 38% 30.51 in 10.0 mi NNE 9.2 mph - 0.00 in   Clear
10:55 PM 37.4 °F 30.8 °F 15.8 °F 41% 30.52 in 10.0 mi NNE 9.2 mph - 0.00 in   Clear
11:15 PM 35.6 °F 29.2 °F 17.6 °F 48% 30.52 in 10.0 mi NE 8.1 mph - 0.00 in   Clear
11:35 PM 37.4 °F 31.4 °F 15.8 °F 41% 30.52 in 10.0 mi NNE 8.1 mph - 0.00 in   Clear
11:55 PM 37.4 °F 30.3 °F 15.8 °F 41% 30.51 in 10.0 mi NNE 10.4 mph - 0.00 in   Clear